Wind_Speed
46 42 39 38 39 38 35 33 32 30 31 33 31 27 25 23 21 20 20 22 24 26 28 27 27 28 29 28 26 23 23 23 22 21 22 21 18 16 14 13 13 14 15 14 13 13 13 13 14 13 13 12 12 13 14 13 12 11 9 8 9 10 9 9 10 10 11 11 11 12 12 12 12 12 12 12 13 13 14 15 16 18 20 22 23
48 46 45 43 42 41 39 36 33 29 27 29 31 29 27 27 25 22 21 23 25 27 29 29 29 30 30 29 26 24 24 23 22 22 22 21 19 16 14 12 13 14 15 14 13 13 13 14 15 15 14 14 13 13 14 13 12 11 10 9 10 10 10 10 10 11 11 11 12 12 12 13 13 12 12 13 14 14 15 16 17 19 21 23 23
52 51 49 47 45 44 43 40 36 31 29 29 31 31 31 31 29 27 28 28 27 27 30 31 32 33 32 29 26 25 25 24 23 22 22 22 20 16 14 13 13 14 14 14 14 13 14 15 16 16 15 15 14 14 14 13 12 12 11 11 11 11 11 10 10 11 11 11 12 12 13 13 13 13 13 14 15 15 16 17 19 20 22 23 24
55 54 52 50 48 47 45 42 39 37 35 34 33 34 34 32 30 30 32 32 30 29 31 33 34 34 32 30 27 25 26 26 23 23 23 23 20 17 14 13 14 15 15 15 15 15 15 16 17 16 16 16 15 14 14 14 13 13 13 13 12 12 11 11 11 11 11 12 12 13 14 14 14 13 14 15 15 16 17 18 19 21 23 24 25
57 55 54 53 49 47 44 42 42 41 39 38 37 36 34 32 32 34 34 33 31 30 32 34 35 34 32 31 28 26 27 26 24 24 23 22 20 16 15 14 14 15 15 15 15 16 16 16 17 17 17 17 16 15 16 16 16 15 14 14 13 12 11 12 12 12 12 13 13 13 14 14 14 14 15 15 16 16 17 18 19 21 23 24 26
59 56 56 54 49 46 44 43 44 43 41 41 41 39 37 35 36 35 34 33 32 31 31 33 35 34 32 31 28 27 27 26 25 24 23 21 19 17 16 16 15 15 16 16 16 16 15 16 16 17 17 17 16 15 16 18 18 17 15 14 13 13 13 13 14 13 13 14 14 14 14 14 15 15 15 16 16 17 18 19 20 21 23 24 26
61 57 57 56 50 46 45 45 45 43 41 42 42 41 39 38 36 34 33 33 31 30 31 33 34 34 32 31 28 27 27 27 26 24 22 21 19 18 18 17 17 16 16 16 16 16 16 16 16 16 17 16 16 16 17 19 20 18 16 14 13 13 14 15 15 15 14 14 14 14 14 15 15 16 16 16 17 17 18 19 20 21 23 25 26
63 61 59 59 55 50 48 48 47 45 43 44 43 42 41 39 37 35 33 31 29 30 31 32 33 32 31 30 27 26 26 26 26 24 22 20 20 20 20 19 18 17 16 16 16 16 16 16 15 16 17 17 16 17 17 20 21 19 17 16 15 15 15 16 16 16 15 15 15 15 15 16 16 16 16 17 17 18 19 19 20 21 23 25 27
65 64 63 63 61 55 52 50 48 47 46 46 44 43 44 42 38 34 31 29 28 29 31 31 30 30 30 28 26 26 26 26 26 24 22 21 22 22 21 19 18 17 16 16 16 16 16 16 15 15 16 18 17 17 18 20 21 20 18 17 17 17 16 16 16 16 15 15 15 16 16 16 16 16 17 17 18 19 20 20 21 22 23 25 27
65 66 65 65 63 58 53 51 51 50 49 48 46 47 45 40 35 31 28 27 28 28 28 27 27 28 28 27 26 26 26 26 25 23 22 23 23 22 20 19 17 17 16 17 17 16 15 15 15 14 15 17 19 19 20 20 20 19 18 18 19 18 17 16 16 16 16 16 16 17 17 17 17 17 17 18 19 20 20 21 22 23 24 25 27
64 65 65 63 61 58 54 53 53 53 51 50 50 47 41 36 31 28 27 28 28 26 25 25 26 27 28 27 26 26 26 25 24 23 23 23 22 21 19 17 17 16 16 16 16 16 16 16 16 15 16 17 19 20 22 22 21 19 17 18 18 18 17 16 16 16 16 16 17 18 17 17 17 17 18 19 20 21 21 21 22 24 25 26 27
63 63 64 63 62 60 57 56 55 54 52 52 48 42 36 32 29 27 28 29 28 25 24 25 25 26 26 25 24 24 25 24 23 22 23 23 21 20 18 16 16 16 15 16 16 16 17 16 16 16 16 17 17 19 21 23 23 19 16 17 17 17 18 18 17 18 17 17 17 18 17 17 17 18 19 20 21 22 22 22 23 24 25 26 28
62 63 63 63 62 60 58 57 56 54 53 50 42 35 33 32 29 27 30 31 28 25 24 24 25 25 24 23 23 23 23 23 22 22 23 22 21 19 18 16 15 15 15 16 16 16 16 16 16 16 16 16 17 18 19 21 22 20 17 16 17 17 19 19 19 19 19 18 18 19 18 18 18 18 19 20 21 22 22 23 23 24 26 27 28
64 63 62 61 60 58 57 55 55 54 51 44 37 34 33 31 29 29 32 32 28 26 25 25 24 24 22 21 21 22 22 22 22 22 22 21 20 19 18 17 16 16 16 16 16 15 15 15 16 16 16 17 18 18 18 19 20 20 18 16 17 18 19 20 20 21 20 19 19 20 19 18 18 19 20 21 22 22 23 24 24 25 26 28 29
64 63 61 59 57 56 55 54 54 52 47 39 35 34 33 30 28 31 33 31 29 27 26 25 23 22 20 20 21 22 22 22 22 22 22 20 20 19 18 17 16 16 16 15 16 16 16 16 17 17 17 18 18 17 18 19 19 19 18 17 17 18 19 20 21 22 21 20 20 21 20 19 19 20 21 22 23 23 24 24 25 26 27 28 29
64 62 60 58 57 56 55 55 52 48 43 38 35 34 31 28 28 31 32 31 30 28 26 26 24 21 19 20 21 22 22 22 22 21 21 20 20 19 18 17 16 16 16 15 16 16 16 17 17 17 17 18 18 17 18 19 18 19 19 19 19 19 20 21 21 22 22 21 21 22 21 20 20 21 22 23 24 24 25 25 26 28 29 30 30
64 62 60 58 57 57 56 53 50 46 42 38 35 32 29 27 29 30 31 31 30 28 28 27 24 20 19 20 21 22 22 23 22 21 20 20 19 19 18 18 17 17 16 15 16 16 16 17 17 16 17 18 18 17 17 18 18 20 20 20 19 19 20 21 21 21 21 22 22 23 22 21 21 22 23 25 25 26 26 27 28 29 30 31 32
62 60 59 58 56 55 54 50 47 44 40 36 33 30 28 29 30 31 32 31 30 30 30 28 24 21 20 21 21 23 23 23 21 20 20 20 19 19 19 19 18 18 16 16 16 16 16 16 16 15 15 16 17 17 17 18 19 20 20 20 19 19 20 21 21 21 22 22 23 24 24 23 23 24 25 26 26 27 28 28 29 30 31 33 34
60 59 58 57 55 53 51 48 45 41 38 36 34 32 30 31 32 33 32 31 32 32 31 29 25 23 21 21 23 24 23 22 21 21 20 20 20 20 20 19 19 18 17 16 16 16 16 16 16 15 14 15 17 17 17 18 19 20 20 19 19 19 20 21 21 21 22 23 24 25 25 24 25 25 27 27 28 29 29 30 31 32 33 35 36
60 59 57 55 53 51 48 46 42 39 37 36 36 34 33 33 34 34 33 33 33 32 31 29 26 24 22 22 24 24 23 22 21 21 20 20 21 20 20 20 19 18 17 17 17 16 16 15 15 15 15 16 17 18 18 18 19 20 20 20 20 19 20 20 21 21 22 23 25 26 26 26 27 27 28 29 30 30 31 32 33 34 36 37 38
59 57 55 53 51 49 46 42 40 39 39 39 38 36 35 36 35 35 34 33 33 31 30 28 27 24 22 23 24 24 23 22 21 21 21 21 21 21 21 20 19 19 18 18 18 17 16 15 15 16 16 17 18 18 18 19 19 20 20 20 20 19 19 20 20 21 22 23 25 26 27 27 28 29 30 31 32 32 33 34 36 37 38 39 40
58 56 53 49 46 43 40 39 40 42 43 41 39 37 38 38 36 35 34 32 31 31 30 29 27 23 22 24 24 24 23 22 21 21 21 22 22 22 22 21 20 20 19 19 18 17 16 15 15 16 17 18 19 19 19 19 19 19 20 20 20 20 19 19 20 21 22 24 25 26 27 28 29 30 32 32 33 34 35 36 38 39 40 41 42
54 53 50 46 41 37 37 39 42 43 42 41 39 40 40 38 37 36 33 31 30 31 30 29 27 23 23 24 25 24 23 22 21 22 22 22 22 23 22 21 21 21 20 20 18 17 16 15 15 16 18 19 20 20 20 19 19 19 19 20 20 20 19 19 20 21 22 24 25 27 28 29 30 31 32 33 34 35 37 38 40 41 41 42 43
50 47 46 43 40 38 40 42 43 42 41 41 42 42 41 39 37 35 31 30 31 31 31 29 26 23 24 25 25 24 24 22 22 22 22 23 23 23 22 21 21 22 21 20 18 17 17 16 16 17 18 19 20 19 19 18 18 19 19 19 19 19 19 19 20 21 22 24 26 27 28 30 31 32 33 34 35 36 38 40 42 43 43 43 45
49 46 45 42 41 42 44 44 43 41 40 42 43 43 42 40 37 33 31 31 32 32 31 29 26 24 24 25 25 25 24 23 23 22 23 23 23 23 22 22 22 22 21 20 19 18 18 17 17 17 19 19 19 18 18 17 18 18 19 19 19 19 19 19 20 21 23 25 27 28 29 30 32 33 34 35 36 38 39 41 43 44 44 45 46
50 48 46 44 43 43 43 43 42 40 41 43 44 44 43 40 36 34 33 32 32 32 31 31 27 24 24 25 25 25 25 24 23 23 23 24 24 23 22 22 22 23 21 20 20 20 19 18 17 18 19 19 19 18 17 17 18 18 19 20 20 20 20 21 21 23 25 26 28 29 30 31 32 34 34 35 37 39 41 42 44 45 46 47 47
49 47 45 43 42 41 40 40 40 40 42 44 44 45 44 40 36 35 34 33 32 32 32 31 28 25 25 26 25 26 26 25 24 24 24 24 23 23 22 22 23 23 22 21 21 20 20 18 18 18 18 18 18 18 17 17 18 19 20 21 21 22 22 22 24 25 26 28 29 30 31 32 34 35 36 37 38 41 43 44 45 47 47 48 47
47 46 43 41 41 40 39 39 39 40 43 44 45 45 43 40 37 36 35 33 32 32 31 30 28 26 26 26 26 27 26 25 25 24 25 24 23 22 22 23 24 24 23 22 21 21 20 19 19 19 18 18 18 18 18 18 19 20 21 22 23 23 24 24 25 27 28 29 30 31 33 34 36 37 38 39 41 43 45 46 47 48 49 49 48
43 43 41 40 40 40 40 40 40 42 44 44 44 44 42 40 39 38 36 34 33 32 31 29 28 26 27 27 27 27 26 25 25 25 25 24 23 22 22 23 24 24 23 22 21 21 21 20 19 19 18 18 18 18 19 19 20 21 22 23 24 24 25 26 27 28 29 30 31 32 34 35 36 37 39 40 42 44 46 48 48 49 50 50 49
39 40 40 39 37 36 37 40 41 43 45 45 44 43 41 39 38 38 36 34 32 32 30 29 28 27 28 29 27 27 26 26 26 26 25 24 23 21 22 23 24 24 23 22 22 22 22 21 20 19 18 19 19 19 20 20 21 22 23 23 24 25 26 27 28 29 30 30 31 32 34 35 36 36 38 40 43 45 48 50 50 50 50 50 51
36 36 38 37 34 31 34 38 40 42 43 44 43 41 40 39 38 37 36 33 32 31 30 29 29 29 30 29 28 27 27 27 27 27 26 24 22 21 22 24 24 24 23 23 23 23 22 21 20 20 20 20 20 20 20 21 22 23 23 25 26 26 27 28 28 29 30 31 32 33 34 35 36 37 38 40 42 44 47 48 47 46 46 47 51
34 34 36 37 34 32 33 35 37 39 40 41 42 41 40 39 38 37 34 33 32 31 30 30 30 30 31 30 28 27 27 27 27 27 26 24 22 22 23 24 24 24 24 23 23 23 22 21 21 21 21 22 22 22 22 23 23 24 25 26 27 27 27 28 29 29 30 31 32 33 35 36 37 37 38 39 41 42 44 44 41 41 43 45 48
37 37 39 39 36 32 30 31 32 34 35 37 38 38 38 37 37 36 34 33 32 31 31 32 31 32 32 31 29 28 28 28 28 28 26 23 22 23 24 24 24 24 24 23 23 23 22 22 22 22 23 23 24 24 25 25 25 25 27 27 28 28 28 29 30 31 31 32 33 34 36 36 36 37 38 41 42 43 44 44 42 41 42 43 44
41 42 42 41 36 31 29 29 30 30 31 34 36 35 36 37 37 37 35 34 33 33 33 33 33 33 33 31 30 29 29 29 30 29 26 24 23 24 24 25 25 24 24 23 23 23 22 22 23 23 24 25 26 27 27 27 27 28 29 29 29 29 30 31 32 32 32 33 33 34 35 35 36 38 40 42 43 44 44 44 44 43 43 42 42
44 44 44 44 40 34 31 31 30 30 32 34 36 35 36 38 39 38 36 36 35 34 34 34 35 34 33 32 30 30 30 31 30 28 25 24 24 25 25 25 25 25 24 23 23 23 23 23 24 24 25 26 28 29 29 30 30 30 30 30 30 31 31 32 33 33 33 32 33 34 36 38 39 40 42 43 44 44 44 44 44 44 44 44 43
44 42 42 43 42 37 34 34 33 34 35 35 36 36 37 38 38 37 36 36 36 36 36 36 36 35 34 32 31 31 31 32 31 28 26 25 25 25 25 26 26 25 24 23 23 23 23 24 24 25 27 28 30 30 31 32 33 32 32 32 32 32 32 32 33 33 32 32 34 36 39 41 42 43 44 44 44 44 44 44 44 44 44 44 44
46 42 38 38 40 39 37 38 37 37 36 37 37 37 37 37 37 37 37 37 38 37 37 38 37 36 35 33 32 32 32 32 31 28 26 25 25 24 25 25 25 24 23 22 22 22 23 24 26 27 29 30 32 32 33 34 35 34 34 34 34 33 33 33 32 32 32 33 36 39 43 44 45 45 44 44 44 45 45 45 44 44 44 44 45
43 43 40 38 39 39 39 39 39 39 38 38 38 38 38 37 36 36 37 38 38 37 38 39 38 37 35 34 33 33 33 33 31 28 26 25 25 24 24 24 23 23 22 22 21 22 23 25 27 29 31 32 33 34 35 36 36 36 35 35 35 33 32 32 32 32 33 36 39 42 45 46 46 45 43 43 45 46 45 44 44 44 45 46 46
37 39 39 37 36 36 37 38 39 40 40 38 38 38 38 38 37 37 38 39 37 36 38 39 39 38 36 34 34 34 34 33 30 28 27 25 24 23 23 24 24 23 23 23 23 23 24 26 28 30 32 33 34 35 36 37 37 36 36 35 34 33 32 32 32 34 36 39 41 44 46 47 45 43 43 44 45 44 43 43 44 45 46 46 46
39 39 38 37 37 39 40 40 39 38 38 38 38 38 38 37 37 38 39 39 37 37 39 41 40 39 37 35 35 36 35 33 31 29 28 26 25 25 24 25 25 26 27 26 24 23 24 26 29 30 32 33 34 35 36 37 37 37 36 35 34 32 32 33 34 36 39 41 43 45 46 45 43 42 43 43 42 41 41 42 44 45 46 45 45
41 43 40 39 39 41 42 41 39 37 38 39 39 39 39 38 39 40 40 40 39 40 42 42 41 39 37 36 36 36 35 33 32 31 28 26 25 25 24 24 25 27 28 27 25 25 26 28 29 31 32 33 34 35 36 37 37 37 37 35 34 32 32 34 36 38 41 43 43 43 44 43 43 43 43 40 39 40 41 43 45 45 44 45 45
39 43 43 41 40 39 38 38 38 38 39 40 40 41 41 41 42 43 42 41 42 42 42 42 41 39 37 37 37 37 35 33 32 30 28 27 27 25 23 23 24 25 26 27 27 28 29 30 30 31 32 33 33 33 35 36 36 36 35 35 34 34 34 36 38 41 43 43 43 42 42 42 42 41 40 38 40 43 43 43 43 43 43 44 44
35 39 41 41 40 40 38 38 38 39 40 42 42 43 43 43 44 44 44 43 43 43 42 42 41 39 38 38 38 37 35 32 30 30 30 29 27 25 23 22 23 25 26 27 28 29 30 30 30 30 31 31 31 32 34 35 36 35 35 35 35 35 36 38 40 42 43 43 43 42 41 40 40 40 40 41 43 44 43 42 42 42 42 42 42
37 38 41 42 41 41 41 40 41 42 43 44 45 45 45 44 44 44 44 44 44 43 43 43 42 40 40 40 39 37 34 31 31 33 34 30 24 22 23 24 26 28 28 27 27 28 29 29 29 30 30 30 31 32 33 35 36 36 36 37 37 37 38 40 42 42 43 42 41 40 39 39 39 40 41 42 42 41 41 41 41 41 40 41 41
36 35 40 44 44 44 45 45 45 45 45 45 45 45 44 44 44 45 45 45 45 45 44 44 42 41 41 40 38 35 31 30 34 35 32 27 23 23 24 24 27 28 27 26 26 27 28 28 28 29 29 30 31 33 34 36 37 38 38 39 39 39 40 41 41 41 40 39 38 38 37 37 38 39 40 40 40 40 40 40 40 39 39 39 39
32 32 37 42 44 45 47 47 45 44 44 45 44 43 43 43 45 47 47 47 47 46 44 44 42 42 41 39 35 32 29 31 35 34 28 24 24 24 23 23 24 25 27 27 27 27 27 28 28 29 30 31 33 34 36 38 39 40 41 41 40 40 40 40 39 38 37 36 36 36 37 37 38 39 40 40 40 40 39 39 38 38 38 38 38
31 32 36 39 42 44 45 45 43 41 43 47 46 44 44 45 46 47 49 49 48 46 44 43 43 42 40 36 33 31 30 31 33 33 29 26 25 23 23 22 23 24 26 28 28 27 27 28 29 31 32 33 35 37 39 41 43 43 42 41 40 39 38 37 36 36 35 34 34 35 37 38 39 40 40 40 40 39 38 38 38 38 38 38 38
29 32 34 36 39 40 41 43 43 41 41 46 47 44 42 41 42 44 45 46 46 47 45 43 42 41 38 35 33 32 32 32 33 32 30 26 24 22 22 22 23 24 25 26 27 28 28 29 31 33 34 36 38 40 42 44 44 43 42 40 38 36 35 34 34 34 34 34 35 36 38 39 39 40 40 39 39 38 38 39 39 38 38 38 38
25 28 29 31 33 35 37 38 40 42 42 43 44 43 42 42 42 42 42 41 42 44 44 43 42 39 35 35 36 34 32 32 31 30 27 25 23 22 22 22 23 24 25 27 28 28 30 32 33 35 37 39 40 41 43 43 42 41 40 38 36 34 32 32 33 33 33 34 36 37 38 38 38 38 38 38 38 38 38 39 39 38 38 38 39
24 25 25 26 28 32 33 32 33 37 41 42 42 42 43 45 45 44 43 41 40 43 44 42 40 36 33 33 33 32 30 28 27 26 25 23 22 22 22 23 24 25 27 28 29 30 32 34 36 38 39 40 40 41 41 41 40 39 37 36 34 33 33 33 34 34 34 35 36 37 37 37 37 36 36 37 37 38 38 38 38 38 38 39 39
24 24 24 25 26 30 32 32 32 33 37 40 42 41 41 42 43 45 44 41 41 45 45 40 36 33 31 31 29 28 27 27 25 24 23 23 22 23 24 25 26 28 29 30 31 33 35 36 38 38 38 39 39 40 40 39 38 36 35 35 34 34 34 35 35 35 35 35 36 36 35 35 35 35 36 36 37 37 38 38 38 39 40 40 41
Wind_Direction
211 213 216 217 217 217 218 219 219 220 221 222 226 229 227 232 240 249 263 275 279 281 282 283 285 285 284 285 288 294 296 294 295 298 298 292 283 277 279 284 283 277 272 267 263 261 256 254 259 266 271 272 275 277 277 277 277 282 285 281 278 275 271 268 267 269 269 266 263 261 263 270 279 286 290 293 296 298 303 309 316 320 321 322 324
215 215 215 216 218 216 216 217 218 221 222 221 225 226 228 234 237 246 267 280 283 284 284 284 284 283 282 283 284 291 295 292 293 297 296 287 277 273 275 279 282 278 272 266 264 263 258 255 259 266 270 272 276 279 278 274 274 279 278 271 272 274 270 264 262 265 265 260 258 261 266 273 281 286 291 295 297 301 307 313 318 320 321 323 326
221 220 217 218 218 217 217 218 219 221 221 219 219 220 225 233 240 254 267 273 280 284 283 281 281 281 282 282 282 287 291 290 291 295 292 285 275 270 273 277 281 279 273 269 267 265 261 257 259 265 268 271 276 280 276 270 270 276 272 266 270 276 272 265 261 260 258 256 257 263 270 275 281 286 292 296 299 305 311 315 318 320 321 324 328
224 225 224 222 220 219 219 222 225 226 224 220 219 222 228 238 252 263 263 266 276 281 280 278 279 281 281 281 281 284 286 287 290 292 289 283 274 270 273 278 279 277 274 273 271 269 264 259 258 262 265 268 274 278 275 269 269 272 272 269 270 273 271 265 259 254 251 253 258 264 271 276 281 287 292 296 301 307 312 314 317 319 322 326 330
224 227 229 226 223 222 222 225 231 234 230 225 225 230 237 248 260 262 261 267 274 277 276 275 277 279 279 279 280 281 282 285 288 289 286 279 271 270 274 276 276 273 272 273 274 273 268 262 260 262 265 268 275 279 276 272 269 270 272 271 268 267 267 263 255 249 247 251 258 265 272 277 282 287 292 297 302 308 311 313 315 319 323 327 330
225 226 229 228 225 225 226 230 235 238 236 232 231 235 244 253 260 262 265 271 273 274 273 271 274 276 276 276 277 278 280 282 285 286 282 274 269 270 272 274 274 271 269 268 271 275 274 270 265 262 264 268 275 279 276 271 269 268 269 267 263 260 262 260 254 249 246 251 259 267 273 277 282 288 293 299 303 308 310 312 314 319 323 326 328
224 225 228 227 226 229 233 236 238 240 242 241 241 245 251 256 259 265 270 272 272 272 270 267 269 272 272 273 275 276 277 280 283 283 277 270 267 269 271 273 273 271 268 266 268 270 272 273 270 268 267 268 272 275 272 267 265 265 264 260 255 254 257 256 253 250 248 253 261 269 274 278 284 289 295 300 304 307 308 311 315 318 321 323 326
223 223 224 225 228 234 238 239 240 242 244 246 249 253 256 257 262 267 270 271 270 270 266 264 266 267 268 271 273 274 276 278 281 279 272 266 265 268 270 273 272 271 270 267 266 267 269 270 267 266 266 267 268 269 267 263 262 263 261 255 251 250 251 250 249 249 250 255 263 270 275 279 286 291 296 301 304 306 308 310 314 317 318 320 324
222 223 224 226 231 236 238 239 241 243 245 248 250 253 255 257 263 266 265 267 267 266 263 262 262 263 265 268 271 272 275 277 277 274 267 264 266 268 270 272 270 271 272 268 268 269 269 268 263 260 263 267 269 268 263 257 256 259 258 255 252 248 245 243 243 245 249 256 264 270 275 280 287 293 297 300 302 305 308 310 313 315 315 318 321
222 224 225 228 232 235 236 237 240 243 244 246 248 250 253 257 261 261 259 261 261 259 260 260 259 260 263 266 269 271 274 275 273 268 263 264 267 269 270 271 270 271 271 269 271 271 268 267 266 264 263 264 268 269 264 255 249 252 257 257 253 248 244 241 240 241 247 257 264 269 274 281 288 294 298 300 302 304 307 311 313 313 314 316 318
221 223 226 228 231 232 233 235 238 241 242 244 246 249 253 256 258 256 253 255 256 256 259 261 259 260 263 265 267 270 272 271 267 262 260 263 267 270 271 270 270 269 268 267 269 269 269 269 269 269 264 262 265 267 265 259 250 249 256 257 253 251 248 244 241 242 247 256 264 269 274 281 289 294 298 300 301 304 307 310 312 312 313 315 316
221 223 225 227 229 229 230 232 235 238 240 242 245 248 252 255 255 251 248 251 253 255 260 262 261 262 263 265 265 267 267 265 261 257 258 263 267 271 271 270 268 267 266 267 270 270 272 272 271 271 269 269 269 265 263 260 255 252 254 255 254 255 254 249 243 244 249 255 263 268 274 281 287 292 295 298 301 303 306 309 310 311 312 314 315
221 223 225 227 228 229 230 232 234 236 239 242 245 249 252 254 252 245 243 247 248 253 260 261 262 263 263 263 261 261 262 259 255 255 258 263 268 271 271 269 267 266 267 269 271 272 272 272 272 272 272 272 270 267 263 260 259 260 259 254 253 254 254 252 248 247 250 256 261 267 272 278 284 289 293 297 300 303 305 308 309 310 312 314 314
221 223 225 227 229 230 231 233 235 237 240 243 247 251 251 251 248 239 238 242 244 251 258 259 262 263 261 259 257 257 257 253 251 253 258 264 269 271 270 268 266 265 267 269 270 271 271 273 274 275 275 272 271 270 265 257 255 260 264 258 254 256 254 253 252 251 251 255 260 265 270 276 282 288 292 296 299 302 305 307 308 310 312 313 314
220 222 224 227 229 230 231 233 235 237 241 245 247 246 246 247 241 233 234 238 241 248 254 257 259 259 257 255 254 253 251 249 249 253 259 265 269 271 269 266 263 263 264 266 268 270 272 274 276 277 276 273 272 271 266 260 256 263 270 264 258 260 258 254 253 253 253 255 260 265 270 275 281 287 291 295 298 301 305 307 308 311 312 313 314
219 221 223 225 228 230 231 233 236 239 243 244 241 239 241 241 236 231 232 235 238 244 250 253 254 255 254 252 250 249 246 246 248 253 260 265 268 270 266 263 262 261 262 265 268 271 274 275 276 276 273 271 271 269 266 263 262 269 274 269 262 261 261 258 256 255 256 258 261 266 270 275 281 285 290 294 298 302 306 307 309 310 312 313 314
218 220 222 224 227 229 232 234 237 239 241 239 236 237 239 236 231 230 231 233 236 241 246 250 252 252 252 250 248 245 243 244 248 254 260 264 267 266 262 263 263 261 263 266 268 272 274 275 275 274 270 270 270 267 265 266 268 272 274 270 264 262 263 262 259 258 259 261 264 268 272 276 280 284 289 294 298 303 306 308 310 310 311 312 313
218 219 222 224 226 229 232 234 236 236 237 236 235 236 233 229 227 227 228 231 234 238 242 246 248 248 248 247 244 241 241 244 248 255 259 262 264 263 261 262 262 261 264 266 269 272 273 274 274 271 268 268 268 266 267 270 272 273 270 266 263 263 265 263 260 260 261 263 267 270 274 276 280 284 288 293 297 301 305 307 309 310 310 311 312
217 218 221 223 225 228 231 232 233 233 234 234 232 230 225 222 223 225 227 229 232 236 239 241 243 243 243 243 241 239 241 244 248 253 257 259 261 260 261 261 260 261 263 265 268 271 272 272 272 270 265 262 263 265 266 268 270 270 269 267 264 265 266 263 260 260 262 266 270 273 276 278 280 284 287 291 295 299 302 305 307 308 309 310 311
216 217 220 222 224 226 229 230 231 232 233 232 230 225 218 218 221 223 225 228 231 235 238 240 242 241 241 240 239 239 240 243 248 252 255 257 258 257 258 259 259 260 262 265 267 269 271 272 271 269 264 258 259 263 265 267 268 267 267 268 267 266 264 261 260 261 264 268 273 276 280 281 282 284 286 290 294 297 300 303 305 306 307 308 309
215 217 219 221 223 225 227 229 229 230 231 229 226 220 215 217 220 223 225 227 231 234 235 238 240 240 239 238 237 237 238 242 247 250 253 255 255 255 256 257 258 259 261 264 266 269 271 272 271 268 264 259 258 261 264 266 266 265 265 267 267 264 261 260 261 263 266 271 276 280 282 283 283 285 287 290 292 296 299 301 302 304 305 306 307
215 216 217 219 221 223 224 226 226 227 227 226 221 214 213 216 220 223 225 227 230 232 233 235 237 237 237 236 235 235 238 241 245 249 252 253 253 254 255 256 256 257 260 262 266 270 272 273 272 271 267 263 261 262 263 265 265 265 264 264 264 262 259 259 261 265 270 275 279 282 283 284 285 286 288 290 292 295 297 299 300 300 302 304 305
215 216 216 217 216 214 215 219 222 224 224 222 215 211 212 215 219 223 224 225 228 230 231 231 233 233 233 233 234 235 237 240 244 248 250 252 253 254 255 255 255 256 259 262 267 271 273 274 275 275 273 269 266 264 264 264 264 263 262 262 261 259 256 258 262 268 274 278 281 283 284 285 286 287 288 290 293 294 296 297 297 298 300 302 303
213 213 214 213 210 208 211 216 220 221 220 215 210 208 211 216 220 222 222 223 226 227 228 229 230 231 231 231 234 235 236 239 243 246 249 251 252 254 255 255 255 256 258 263 268 272 274 276 278 279 278 274 270 267 264 262 261 260 260 259 257 255 256 259 265 271 276 279 281 282 284 285 286 287 289 291 292 293 294 294 295 297 299 300 301
210 209 210 211 209 211 214 217 219 219 215 211 207 208 212 216 220 221 220 221 225 226 226 226 228 230 229 230 233 234 235 239 242 246 248 250 252 254 255 255 255 256 258 263 268 271 274 277 281 282 279 275 269 263 260 258 258 259 258 256 255 255 258 262 268 273 276 278 280 283 284 285 286 288 290 291 291 292 292 293 294 296 297 298 300
208 208 210 209 208 211 214 216 217 215 212 209 207 209 213 216 219 219 219 222 225 226 226 226 227 228 227 228 231 232 234 238 241 245 248 250 253 255 256 255 255 256 257 262 266 270 275 279 282 282 279 272 265 259 256 256 258 259 258 257 256 257 261 266 270 273 276 279 281 284 286 287 288 290 291 292 292 291 291 292 293 294 296 297 298
207 206 205 204 205 207 210 213 213 210 209 208 208 211 214 216 218 219 220 223 225 227 227 225 225 225 225 226 228 230 233 237 241 245 247 250 253 255 256 255 255 255 256 260 264 270 275 279 280 280 276 269 261 256 255 255 257 258 258 258 258 260 263 267 270 274 277 280 282 285 287 289 290 292 293 292 292 292 292 292 293 294 295 295 296
202 201 198 197 200 203 205 208 207 205 206 208 208 211 213 215 217 219 221 223 225 226 225 223 223 223 223 224 226 229 232 236 241 244 248 251 253 255 255 254 254 254 255 259 263 269 274 276 277 276 273 266 259 255 254 255 256 256 257 258 259 261 264 267 271 274 277 281 285 288 290 292 293 295 295 294 293 293 294 293 293 294 294 294 295
195 196 193 193 196 200 202 204 204 204 206 208 208 211 212 213 215 217 220 221 223 224 223 221 221 222 223 224 225 228 231 236 240 244 247 250 252 253 254 254 253 253 255 258 263 269 272 273 273 273 270 264 259 256 255 254 255 255 257 259 261 265 268 270 273 277 280 285 289 292 294 295 296 297 298 298 297 298 297 295 294 294 294 296 296
191 191 190 191 193 197 202 203 204 205 208 210 210 212 213 213 214 217 219 220 221 221 219 217 219 221 223 224 226 228 231 235 239 243 246 248 251 253 253 252 252 253 256 259 263 267 270 271 270 269 268 265 261 259 258 258 259 261 263 265 269 272 274 277 280 283 287 291 293 295 296 296 297 298 300 301 301 302 300 297 295 296 298 300 300
190 190 191 191 191 195 201 203 204 206 209 212 213 214 214 213 214 217 219 220 221 219 215 214 217 220 222 225 226 228 231 235 239 242 245 247 249 251 251 251 252 253 255 258 262 266 268 268 267 267 267 266 264 264 265 267 269 271 273 275 277 279 281 284 287 288 290 293 294 295 296 296 297 298 300 300 300 301 301 299 298 299 300 303 302
190 191 191 189 190 195 200 202 202 205 208 212 214 214 214 213 214 216 218 219 220 217 213 213 216 219 222 225 226 228 231 235 239 242 243 245 247 249 250 250 251 252 254 257 261 265 268 267 265 266 267 268 270 272 273 276 278 280 281 282 284 286 287 289 289 290 292 293 294 295 296 296 296 296 296 297 298 301 303 304 302 300 300 300 301
193 193 190 187 189 194 199 201 201 204 208 212 214 216 215 214 214 216 216 218 219 215 211 212 216 220 223 225 226 228 231 235 238 240 241 244 246 248 248 249 250 252 253 256 260 263 266 265 264 266 268 271 274 276 278 281 283 284 283 284 286 288 288 289 290 292 293 293 293 295 296 296 296 296 296 297 299 302 306 307 306 303 301 299 299
197 195 190 185 186 192 198 201 202 204 208 212 214 215 215 214 214 214 214 215 215 213 211 213 216 219 222 224 225 227 231 234 237 239 241 244 246 247 248 249 250 251 252 255 257 261 264 266 266 267 270 273 275 277 281 283 283 284 284 285 285 286 287 289 291 293 293 294 295 296 297 297 297 297 297 297 299 301 305 307 306 304 303 303 303
201 198 191 184 184 188 196 200 202 204 208 210 211 213 214 213 212 213 213 214 213 212 211 213 216 219 221 223 224 226 230 234 238 240 242 245 247 248 249 250 250 251 252 254 256 259 263 266 269 270 272 274 276 279 281 282 283 284 285 285 285 286 289 290 291 292 293 294 295 296 296 297 298 298 298 297 299 301 303 304 304 303 303 304 305
205 200 191 185 184 186 194 201 205 207 210 211 212 214 215 214 213 213 212 212 212 211 211 212 215 218 221 223 224 227 231 235 238 241 243 246 248 249 249 250 251 251 252 253 255 259 263 267 271 274 274 275 277 279 281 282 283 284 284 285 286 288 289 289 290 291 293 294 295 296 297 298 299 299 298 298 299 301 302 302 303 302 301 302 303
206 199 191 188 187 188 195 203 207 209 212 214 214 215 216 214 213 213 212 212 213 211 211 213 215 218 221 223 224 227 231 235 238 241 244 247 248 248 248 249 250 251 252 252 254 258 263 268 272 273 275 276 278 280 281 282 283 284 285 286 288 289 289 289 289 291 292 294 295 296 297 298 298 298 297 297 299 300 301 302 302 302 302 302 303
204 200 197 195 194 195 200 204 205 208 212 214 216 217 217 215 213 212 212 214 214 213 213 215 217 220 222 223 225 228 231 234 238 241 244 245 246 246 246 248 249 249 249 250 253 258 263 268 271 273 275 277 279 280 281 282 283 284 286 287 288 289 289 289 289 290 291 293 295 296 297 297 297 296 295 296 298 299 300 301 301 302 302 302 302
207 203 202 202 201 202 203 204 205 206 210 213 216 218 218 216 213 213 214 214 214 214 215 218 220 221 223 223 225 228 231 234 237 241 242 242 242 241 243 245 247 246 247 248 251 256 262 266 268 271 273 276 278 279 281 282 284 285 285 285 286 287 287 287 288 289 291 293 295 296 296 297 297 295 294 296 297 298 299 299 299 300 300 301 302
212 207 205 206 204 201 200 200 203 207 211 213 215 216 217 215 214 215 214 214 213 213 215 219 221 222 222 222 224 228 231 233 236 239 239 238 238 240 243 247 249 249 250 251 254 259 264 266 266 268 271 274 277 279 280 281 282 283 283 284 285 285 285 285 287 289 292 294 295 296 297 297 296 296 295 296 297 297 297 297 297 298 299 300 301
213 209 206 207 207 204 200 200 203 208 212 213 213 214 215 214 214 215 215 213 213 213 215 219 220 221 221 220 223 228 230 232 235 237 237 237 240 243 247 251 253 253 252 252 256 263 267 268 268 269 271 273 276 278 279 279 279 280 281 282 283 283 282 283 287 290 293 294 294 296 296 295 295 296 296 295 295 297 297 297 297 298 299 300 302
210 207 205 205 207 207 205 204 206 210 212 213 215 216 216 214 214 215 215 214 214 214 216 219 220 220 219 219 223 227 229 232 236 237 237 238 239 242 247 252 255 257 255 255 259 265 268 270 272 273 275 276 277 277 277 277 276 277 278 280 282 282 283 286 290 291 292 293 294 294 293 292 293 294 294 293 295 297 297 296 297 298 300 301 303
209 206 204 204 204 204 203 203 206 209 212 215 217 217 218 218 217 216 216 215 215 215 216 218 219 219 218 218 223 227 229 232 236 240 240 237 237 241 247 252 255 256 257 258 261 266 269 272 274 275 277 278 277 276 275 275 276 277 279 281 282 284 287 289 291 291 291 293 293 293 292 291 292 292 292 293 295 297 297 298 299 300 301 302 303
212 207 204 203 203 202 202 202 205 209 212 215 216 217 218 220 220 218 216 215 215 215 216 217 218 217 217 218 222 226 229 233 238 242 240 236 236 244 250 254 258 257 256 260 265 268 271 272 273 275 277 277 277 276 276 277 278 279 281 282 284 287 289 290 291 291 292 292 292 292 291 291 290 290 291 293 295 296 298 300 301 302 303 303 304
208 203 200 200 202 203 203 204 207 211 214 216 216 218 219 220 220 219 216 214 214 214 215 216 216 216 216 219 222 227 233 237 238 237 235 233 239 248 254 261 264 259 256 264 271 272 272 273 274 276 277 277 278 278 278 280 281 282 284 287 290 292 292 292 292 291 291 291 291 292 292 292 291 292 293 295 296 298 300 301 302 303 304 305 305
205 201 198 199 201 204 206 207 209 214 217 218 217 218 219 220 220 218 214 212 212 213 213 213 214 216 217 220 224 228 234 239 237 234 234 239 247 254 260 267 266 259 258 267 272 272 273 275 276 277 278 280 281 281 282 283 284 286 289 291 293 294 293 292 291 290 290 290 291 292 293 293 293 294 296 298 299 301 302 302 303 304 305 306 306
208 209 207 206 206 208 210 213 215 218 219 218 216 217 218 219 219 217 213 211 210 210 210 211 213 215 218 221 225 228 233 239 236 232 237 248 256 261 264 265 263 261 263 268 271 273 276 277 278 279 281 282 283 284 285 286 288 290 291 293 293 293 292 291 290 289 290 291 292 292 293 293 294 296 298 300 301 301 302 302 304 305 305 306 306
213 216 217 216 214 214 215 218 222 226 226 222 219 220 222 222 222 221 219 216 210 205 205 208 212 215 218 221 224 228 234 238 236 235 243 254 261 264 264 263 263 265 266 269 272 275 278 279 280 282 283 283 285 286 287 288 289 291 292 293 293 292 290 289 290 290 291 292 292 292 292 293 295 296 298 300 300 300 301 302 304 305 305 306 306
222 225 226 225 222 220 220 222 226 231 234 231 225 222 223 224 223 222 223 223 214 204 201 207 212 214 218 222 225 229 234 237 239 244 252 259 262 262 262 263 265 267 269 272 276 278 280 281 281 282 283 284 285 286 286 287 289 290 292 292 291 290 290 290 290 291 291 291 291 291 292 293 295 296 298 298 299 299 301 302 303 303 304 305 305
225 227 229 230 228 224 225 232 237 238 239 237 230 224 223 224 224 221 220 222 216 205 203 208 213 215 219 224 227 232 237 242 246 251 256 258 259 259 260 262 265 268 272 275 278 279 280 280 281 281 283 284 285 286 286 287 289 290 290 290 290 291 291 291 292 293 293 293 292 293 294 295 296 297 297 297 298 299 300 301 302 302 304 304 303
228 228 229 233 235 234 238 247 251 248 244 239 231 226 225 225 225 222 220 218 213 207 206 209 212 217 223 227 230 236 241 246 250 252 253 254 255 257 260 264 267 270 273 276 278 279 279 280 281 282 284 285 285 286 286 287 288 289 289 290 291 292 292 292 293 294 295 295 295 295 296 297 297 297 297 298 298 299 300 300 301 302 303 304 303
Height
5788 5792 5795 5797 5800 5804 5807 5810 5813 5815 5818 5821 5823 5826 5828 5830 5830 5832 5833 5833 5834 5835 5835 5835 5836 5835 5835 5835 5835 5836 5835 5834 5833 5833 5833 5833 5832 5831 5830 5830 5829 5829 5829 5829 5829 5828 5828 5827 5826 5825 5824 5824 5825 5825 5824 5823 5823 5822 5822 5822 5822 5822 5822 5821 5821 5821 5820 5820 5819 5819 5819 5819 5818 5818 5817 5816 5816 5815 5814 5813 5811 5810 5808 5807 5805
5783 5785 5788 5792 5795 5799 5802 5805 5808 5811 5815 5818 5821 5823 5825 5826 5827 5828 5830 5831 5831 5832 5832 5832 5833 5832 5832 5832 5833 5834 5833 5832 5831 5831 5831 5831 5830 5829 5828 5828 5827 5827 5827 5827 5827 5826 5826 5825 5824 5823 5823 5822 5823 5823 5822 5821 5821 5821 5821 5821 5821 5820 5820 5820 5819 5819 5818 5818 5817 5817 5817 5817 5817 5816 5815 5814 5814 5813 5812 5810 5809 5808 5806 5805 5803
5777 5780 5784 5788 5791 5795 5798 5801 5805 5808 5812 5814 5817 5819 5821 5822 5824 5826 5827 5828 5828 5829 5829 5830 5830 5829 5829 5829 5830 5831 5831 5829 5829 5828 5828 5828 5828 5827 5827 5826 5825 5825 5825 5825 5825 5824 5824 5823 5822 5822 5821 5820 5820 5820 5820 5820 5819 5819 5819 5819 5819 5818 5818 5817 5817 5817 5816 5816 5815 5815 5815 5815 5815 5814 5813 5813 5812 5811 5809 5808 5807 5806 5804 5803 5801
5773 5776 5780 5784 5787 5791 5794 5798 5802 5805 5808 5811 5813 5815 5817 5820 5822 5823 5823 5824 5825 5826 5826 5827 5827 5826 5826 5826 5827 5828 5828 5826 5826 5826 5825 5825 5825 5825 5825 5824 5823 5822 5822 5822 5822 5822 5822 5821 5820 5820 5819 5819 5819 5819 5818 5818 5817 5817 5817 5817 5817 5817 5816 5815 5815 5815 5814 5814 5814 5814 5814 5813 5813 5812 5812 5811 5810 5809 5808 5807 5805 5804 5802 5800 5799
5769 5772 5776 5780 5783 5787 5791 5794 5798 5801 5804 5808 5811 5813 5815 5817 5818 5819 5820 5821 5822 5822 5823 5824 5823 5823 5823 5823 5824 5825 5824 5824 5824 5823 5823 5822 5823 5823 5823 5822 5821 5820 5820 5820 5820 5820 5819 5819 5819 5818 5817 5817 5817 5817 5816 5815 5815 5815 5815 5815 5815 5815 5814 5813 5813 5813 5813 5812 5812 5812 5812 5812 5811 5810 5810 5809 5808 5808 5806 5805 5804 5802 5800 5798 5797
5765 5769 5773 5776 5780 5784 5788 5791 5793 5796 5801 5805 5807 5809 5812 5814 5814 5815 5816 5817 5818 5818 5820 5820 5820 5820 5820 5820 5821 5822 5821 5821 5821 5821 5820 5820 5820 5821 5820 5820 5819 5819 5818 5818 5818 5817 5817 5817 5816 5816 5815 5815 5815 5814 5814 5813 5813 5813 5813 5813 5813 5812 5812 5812 5811 5811 5811 5811 5811 5811 5810 5810 5809 5809 5808 5808 5807 5806 5805 5803 5802 5800 5798 5797 5796
5760 5765 5769 5772 5776 5779 5783 5786 5789 5793 5797 5800 5803 5806 5808 5810 5810 5811 5812 5813 5814 5815 5816 5817 5817 5817 5817 5817 5818 5818 5818 5818 5818 5818 5818 5818 5818 5818 5818 5817 5817 5817 5817 5816 5816 5815 5815 5814 5814 5813 5813 5813 5812 5812 5812 5812 5811 5811 5811 5811 5811 5810 5810 5810 5810 5810 5810 5810 5809 5809 5809 5808 5807 5807 5806 5806 5805 5804 5803 5801 5800 5798 5797 5795 5794
5755 5759 5763 5767 5770 5775 5779 5783 5787 5790 5793 5795 5798 5801 5804 5805 5806 5807 5809 5809 5811 5812 5812 5813 5813 5814 5814 5814 5814 5815 5815 5815 5815 5816 5815 5815 5815 5815 5815 5815 5814 5814 5814 5814 5814 5814 5813 5812 5812 5812 5811 5811 5810 5811 5811 5810 5809 5809 5809 5809 5808 5808 5808 5808 5808 5808 5808 5808 5808 5807 5807 5806 5806 5805 5804 5804 5803 5802 5801 5800 5798 5797 5795 5793 5792
5750 5754 5758 5762 5766 5771 5776 5780 5784 5786 5788 5791 5795 5798 5799 5800 5802 5804 5806 5806 5808 5808 5809 5809 5810 5810 5810 5810 5811 5812 5812 5812 5813 5813 5813 5813 5813 5813 5812 5812 5812 5812 5812 5812 5812 5812 5811 5811 5811 5810 5810 5809 5809 5809 5809 5808 5807 5807 5807 5807 5806 5806 5805 5806 5806 5806 5806 5806 5806 5806 5805 5805 5804 5804 5803 5802 5801 5800 5799 5797 5796 5795 5793 5791 5790
5744 5749 5753 5757 5762 5768 5773 5778 5780 5782 5784 5788 5791 5793 5794 5797 5799 5801 5803 5803 5805 5805 5805 5806 5807 5807 5807 5808 5809 5809 5809 5809 5810 5810 5810 5810 5810 5810 5810 5809 5809 5809 5810 5809 5809 5809 5809 5809 5809 5809 5808 5808 5807 5806 5805 5805 5805 5805 5805 5804 5804 5804 5803 5803 5804 5804 5804 5805 5804 5804 5804 5803 5803 5802 5801 5800 5799 5798 5797 5795 5794 5793 5791 5789 5787
5739 5744 5748 5753 5758 5764 5770 5773 5775 5777 5780 5783 5786 5789 5791 5794 5796 5798 5799 5800 5801 5802 5802 5803 5803 5804 5804 5805 5805 5805 5806 5806 5807 5807 5807 5807 5807 5807 5807 5807 5807 5807 5807 5807 5807 5807 5807 5807 5806 5806 5806 5805 5804 5803 5803 5803 5802 5802 5802 5803 5802 5802 5802 5802 5802 5802 5803 5803 5803 5802 5802 5801 5801 5800 5799 5798 5797 5796 5795 5794 5792 5791 5789 5787 5785
5735 5739 5743 5748 5752 5758 5763 5767 5769 5772 5775 5778 5782 5786 5788 5790 5792 5794 5795 5797 5798 5799 5799 5800 5800 5800 5801 5802 5802 5802 5802 5804 5804 5804 5804 5804 5805 5805 5805 5804 5804 5804 5804 5805 5805 5804 5804 5804 5804 5803 5803 5802 5802 5801 5801 5801 5800 5799 5800 5801 5801 5801 5800 5800 5800 5800 5800 5801 5801 5801 5800 5800 5799 5798 5797 5796 5795 5794 5793 5791 5790 5789 5787 5785 5783
5730 5734 5738 5742 5747 5752 5757 5761 5764 5767 5771 5775 5779 5783 5785 5787 5789 5790 5792 5794 5795 5795 5796 5797 5797 5797 5798 5799 5799 5799 5800 5801 5801 5801 5802 5802 5802 5803 5802 5802 5802 5802 5802 5802 5802 5802 5802 5802 5801 5801 5800 5800 5799 5799 5799 5799 5798 5798 5798 5798 5799 5799 5799 5798 5798 5798 5798 5799 5799 5799 5799 5798 5797 5796 5796 5795 5793 5792 5791 5789 5788 5786 5785 5783 5781
5724 5728 5733 5737 5742 5748 5753 5757 5760 5764 5768 5772 5777 5780 5782 5783 5785 5787 5789 5790 5791 5792 5793 5794 5794 5794 5795 5796 5796 5796 5797 5798 5798 5799 5799 5800 5800 5800 5800 5799 5799 5800 5800 5800 5799 5799 5799 5799 5799 5798 5798 5797 5797 5797 5797 5796 5797 5796 5796 5796 5797 5797 5797 5797 5797 5797 5797 5797 5797 5797 5797 5796 5795 5794 5794 5793 5791 5790 5789 5787 5786 5784 5783 5781 5779
5718 5723 5728 5734 5739 5744 5749 5753 5756 5760 5765 5770 5773 5776 5778 5780 5782 5784 5785 5786 5788 5789 5790 5791 5791 5792 5792 5793 5793 5794 5794 5795 5796 5796 5797 5797 5798 5798 5797 5797 5797 5798 5798 5797 5797 5797 5797 5797 5796 5795 5795 5794 5794 5794 5794 5794 5795 5795 5794 5794 5794 5795 5795 5795 5795 5795 5795 5795 5795 5795 5795 5794 5793 5792 5791 5790 5789 5788 5786 5785 5783 5782 5780 5778 5776
5713 5718 5724 5730 5735 5740 5744 5748 5753 5757 5762 5766 5770 5772 5775 5777 5778 5780 5781 5782 5784 5785 5787 5788 5788 5789 5789 5790 5790 5791 5792 5792 5793 5794 5794 5795 5795 5796 5795 5795 5795 5796 5795 5795 5795 5795 5795 5794 5793 5793 5792 5792 5791 5792 5792 5792 5793 5792 5792 5792 5792 5792 5793 5793 5793 5793 5793 5793 5793 5793 5792 5792 5791 5790 5789 5788 5786 5785 5784 5782 5781 5779 5777 5775 5774
5708 5714 5720 5726 5731 5735 5739 5744 5749 5754 5759 5763 5766 5769 5772 5774 5775 5776 5777 5778 5781 5783 5784 5785 5785 5786 5787 5787 5788 5788 5789 5790 5791 5791 5792 5793 5793 5793 5793 5793 5793 5793 5793 5793 5793 5793 5792 5791 5791 5790 5790 5789 5789 5790 5790 5790 5790 5790 5790 5790 5790 5790 5790 5790 5790 5790 5791 5791 5791 5791 5790 5789 5788 5787 5786 5785 5783 5782 5780 5779 5778 5776 5774 5772 5770
5703 5710 5716 5722 5727 5731 5736 5741 5746 5751 5755 5759 5763 5766 5768 5770 5771 5772 5773 5775 5777 5779 5780 5781 5782 5783 5784 5784 5785 5786 5786 5787 5788 5789 5790 5791 5791 5791 5791 5791 5791 5791 5791 5791 5790 5790 5790 5789 5788 5788 5788 5788 5788 5788 5788 5788 5787 5787 5788 5788 5787 5788 5788 5788 5788 5788 5788 5788 5788 5788 5787 5786 5786 5785 5783 5782 5780 5779 5777 5776 5774 5773 5771 5769 5767
5697 5704 5711 5717 5723 5728 5733 5738 5743 5747 5751 5755 5758 5760 5763 5765 5766 5768 5769 5771 5773 5775 5777 5778 5779 5780 5781 5782 5782 5783 5784 5785 5786 5787 5788 5788 5788 5789 5789 5789 5789 5789 5789 5788 5788 5788 5787 5786 5786 5786 5786 5786 5786 5786 5785 5785 5785 5785 5786 5786 5786 5786 5786 5786 5786 5786 5786 5786 5786 5785 5785 5784 5783 5782 5780 5779 5777 5776 5774 5773 5771 5769 5768 5766 5764
5693 5700 5706 5713 5718 5724 5729 5734 5739 5743 5747 5750 5752 5755 5758 5760 5762 5764 5765 5767 5769 5771 5774 5775 5776 5777 5778 5779 5779 5780 5782 5783 5784 5784 5785 5786 5786 5786 5787 5786 5786 5786 5786 5786 5785 5785 5785 5784 5784 5784 5784 5784 5784 5783 5783 5783 5783 5783 5784 5784 5784 5784 5784 5783 5783 5783 5783 5783 5783 5783 5782 5781 5780 5779 5778 5776 5775 5773 5771 5769 5768 5766 5764 5763 5761
5690 5696 5702 5709 5714 5720 5725 5730 5734 5738 5741 5744 5747 5751 5754 5756 5758 5760 5762 5764 5766 5769 5771 5772 5773 5774 5775 5776 5777 5778 5779 5780 5781 5782 5783 5783 5784 5784 5784 5784 5784 5784 5784 5783 5783 5783 5782 5782 5782 5782 5781 5782 5781 5781 5781 5781 5781 5781 5781 5781 5781 5781 5780 5780 5780 5780 5780 5780 5780 5780 5779 5778 5777 5776 5775 5773 5772 5770 5768 5766 5764 5763 5761 5759 5757
5688 5694 5699 5705 5710 5716 5721 5725 5728 5731 5734 5738 5742 5746 5749 5752 5754 5756 5758 5761 5763 5766 5767 5768 5770 5771 5772 5773 5774 5776 5777 5778 5779 5780 5780 5781 5781 5781 5781 5781 5782 5781 5781 5781 5780 5780 5780 5780 5780 5779 5779 5779 5779 5778 5778 5778 5778 5778 5778 5778 5778 5778 5778 5778 5778 5778 5777 5777 5777 5777 5776 5775 5774 5773 5771 5770 5769 5767 5765 5763 5761 5759 5757 5756 5754
5686 5691 5696 5701 5707 5712 5716 5719 5722 5726 5730 5734 5738 5741 5744 5748 5750 5752 5755 5758 5760 5762 5763 5765 5766 5768 5769 5770 5772 5773 5774 5775 5777 5777 5778 5778 5779 5779 5779 5779 5779 5779 5779 5778 5778 5778 5778 5778 5777 5777 5776 5776 5775 5775 5775 5775 5775 5775 5775 5775 5775 5775 5775 5775 5775 5775 5775 5775 5774 5773 5773 5772 5770 5769 5768 5767 5766 5764 5762 5760 5758 5756 5754 5752 5750
5681 5687 5693 5698 5704 5708 5710 5714 5717 5721 5725 5729 5733 5737 5740 5743 5746 5749 5752 5755 5756 5758 5759 5761 5763 5765 5766 5768 5769 5770 5772 5773 5774 5775 5775 5776 5776 5776 5776 5777 5777 5776 5776 5776 5776 5776 5775 5775 5774 5774 5773 5772 5772 5772 5772 5772 5772 5772 5772 5772 5773 5773 5773 5773 5772 5772 5772 5772 5771 5770 5769 5768 5767 5766 5765 5764 5762 5760 5759 5756 5754 5752 5750 5748 5746
5677 5682 5688 5694 5699 5702 5705 5709 5713 5718 5722 5725 5729 5732 5736 5739 5742 5746 5749 5750 5752 5754 5756 5758 5760 5762 5763 5765 5766 5768 5769 5770 5771 5772 5772 5773 5773 5773 5774 5774 5774 5774 5773 5773 5773 5773 5773 5772 5772 5771 5770 5770 5769 5769 5769 5770 5770 5770 5770 5770 5770 5770 5770 5770 5770 5770 5769 5768 5768 5767 5766 5765 5763 5762 5761 5760 5759 5756 5755 5753 5750 5748 5747 5744 5742
5673 5678 5684 5689 5693 5697 5702 5706 5710 5715 5718 5721 5725 5728 5731 5735 5739 5742 5745 5746 5748 5750 5753 5755 5757 5759 5761 5762 5764 5765 5766 5767 5768 5769 5770 5770 5770 5771 5771 5771 5771 5771 5771 5771 5771 5770 5770 5770 5769 5769 5768 5767 5767 5767 5767 5768 5768 5768 5768 5768 5768 5768 5768 5767 5767 5767 5766 5765 5765 5764 5763 5761 5760 5759 5758 5756 5755 5752 5750 5749 5746 5745 5743 5740 5738
5672 5676 5680 5685 5689 5694 5699 5703 5707 5711 5714 5717 5720 5724 5728 5732 5735 5738 5741 5743 5745 5747 5749 5751 5754 5756 5758 5759 5761 5762 5763 5764 5765 5766 5767 5767 5768 5768 5768 5769 5768 5768 5768 5768 5768 5768 5768 5767 5767 5766 5766 5765 5765 5765 5765 5766 5766 5766 5766 5766 5766 5765 5765 5765 5764 5764 5763 5762 5761 5760 5759 5758 5757 5755 5754 5753 5751 5748 5746 5744 5742 5740 5738 5736 5734
5670 5673 5677 5682 5687 5691 5696 5700 5704 5707 5710 5713 5716 5720 5724 5728 5732 5734 5737 5739 5741 5743 5746 5748 5751 5753 5754 5756 5758 5759 5760 5762 5763 5763 5764 5764 5765 5765 5766 5766 5766 5766 5766 5766 5766 5765 5765 5765 5765 5764 5764 5764 5763 5763 5764 5764 5764 5764 5763 5763 5763 5763 5762 5762 5761 5761 5760 5759 5758 5757 5756 5755 5753 5752 5750 5749 5746 5744 5742 5740 5738 5736 5733 5731 5729
5667 5671 5675 5679 5684 5689 5693 5697 5700 5703 5706 5708 5712 5716 5720 5724 5727 5730 5732 5735 5737 5740 5742 5745 5747 5749 5751 5753 5754 5756 5758 5759 5760 5761 5761 5761 5762 5762 5763 5763 5763 5763 5763 5763 5763 5763 5763 5763 5762 5762 5762 5762 5762 5761 5762 5762 5761 5761 5761 5760 5760 5759 5759 5758 5758 5757 5757 5756 5755 5754 5752 5751 5749 5748 5746 5744 5742 5740 5738 5735 5733 5731 5728 5726 5725
5665 5670 5674 5677 5682 5686 5690 5693 5696 5699 5701 5704 5708 5712 5716 5720 5723 5726 5729 5731 5734 5736 5739 5742 5744 5746 5747 5749 5751 5753 5755 5756 5757 5757 5758 5758 5759 5760 5760 5760 5760 5760 5760 5760 5760 5760 5760 5760 5760 5760 5760 5759 5759 5759 5759 5759 5759 5758 5758 5757 5757 5756 5756 5755 5755 5754 5754 5753 5752 5750 5749 5747 5745 5744 5742 5740 5738 5735 5733 5731 5729 5727 5724 5722 5720
5663 5668 5672 5675 5679 5683 5686 5689 5692 5695 5698 5701 5705 5709 5713 5716 5720 5723 5726 5728 5731 5733 5736 5738 5740 5742 5743 5745 5748 5750 5752 5753 5754 5754 5755 5756 5756 5757 5757 5757 5757 5757 5757 5757 5757 5757 5758 5758 5758 5758 5757 5757 5757 5757 5756 5756 5755 5755 5755 5755 5754 5754 5753 5753 5752 5751 5750 5749 5748 5746 5745 5743 5742 5740 5738 5736 5734 5731 5729 5726 5724 5722 5721 5719 5716
5660 5665 5669 5672 5675 5679 5683 5685 5688 5691 5694 5698 5702 5705 5709 5713 5717 5720 5723 5725 5727 5730 5733 5735 5737 5738 5740 5742 5745 5747 5749 5750 5750 5751 5752 5753 5754 5754 5754 5754 5754 5754 5754 5754 5754 5754 5755 5755 5755 5755 5755 5754 5754 5754 5753 5753 5753 5753 5753 5752 5752 5751 5751 5750 5749 5748 5747 5746 5744 5743 5741 5740 5738 5736 5734 5732 5730 5727 5725 5722 5720 5718 5717 5715 5713
5657 5662 5665 5668 5672 5676 5680 5683 5685 5688 5691 5695 5699 5703 5707 5711 5714 5717 5719 5721 5724 5727 5730 5731 5733 5734 5736 5739 5742 5744 5746 5747 5747 5748 5749 5750 5750 5750 5750 5751 5751 5751 5751 5752 5752 5752 5752 5752 5752 5752 5752 5752 5751 5751 5751 5751 5751 5751 5750 5749 5749 5748 5748 5747 5746 5745 5744 5742 5741 5739 5738 5736 5734 5732 5730 5728 5726 5724 5722 5719 5716 5715 5713 5711 5709
5656 5659 5662 5664 5668 5673 5677 5680 5683 5686 5690 5693 5697 5700 5704 5708 5710 5712 5715 5718 5721 5723 5726 5727 5729 5731 5733 5736 5738 5740 5742 5743 5744 5745 5746 5747 5747 5747 5747 5748 5748 5748 5749 5749 5749 5749 5749 5750 5750 5750 5749 5749 5749 5748 5749 5749 5748 5748 5747 5746 5746 5745 5745 5744 5742 5741 5740 5739 5737 5736 5734 5732 5730 5729 5726 5724 5722 5720 5718 5716 5713 5711 5709 5707 5705
5655 5657 5659 5660 5663 5668 5673 5677 5681 5684 5687 5690 5693 5697 5700 5703 5705 5708 5711 5714 5717 5719 5722 5723 5725 5727 5730 5733 5735 5737 5738 5739 5740 5742 5743 5743 5744 5744 5745 5745 5745 5746 5746 5746 5747 5747 5747 5747 5747 5747 5747 5747 5746 5746 5746 5746 5745 5744 5744 5743 5743 5742 5742 5740 5739 5738 5737 5736 5734 5732 5730 5728 5727 5725 5723 5720 5718 5716 5714 5712 5709 5707 5705 5703 5701
5653 5656 5659 5660 5661 5665 5670 5675 5678 5681 5684 5687 5691 5693 5696 5699 5702 5705 5708 5710 5713 5715 5718 5720 5721 5724 5727 5729 5732 5734 5735 5736 5737 5738 5740 5740 5741 5741 5742 5742 5742 5743 5743 5744 5744 5744 5744 5744 5744 5744 5744 5744 5744 5744 5743 5742 5741 5741 5741 5740 5740 5739 5738 5737 5736 5735 5733 5732 5731 5728 5726 5724 5723 5721 5718 5716 5714 5712 5710 5708 5705 5703 5701 5699 5697
5651 5654 5657 5658 5659 5661 5665 5669 5674 5677 5681 5685 5688 5690 5693 5696 5699 5702 5704 5706 5709 5712 5714 5716 5718 5721 5724 5726 5729 5730 5731 5732 5734 5735 5736 5737 5738 5738 5739 5739 5739 5740 5740 5740 5741 5741 5741 5741 5741 5741 5741 5741 5740 5740 5740 5738 5738 5737 5737 5737 5736 5736 5735 5734 5732 5731 5730 5728 5727 5724 5722 5720 5718 5716 5714 5712 5709 5708 5706 5703 5701 5699 5697 5695 5692
5648 5651 5654 5655 5657 5659 5661 5664 5669 5674 5678 5681 5684 5687 5689 5692 5695 5698 5701 5703 5705 5709 5711 5713 5715 5718 5721 5723 5725 5726 5728 5729 5730 5732 5733 5734 5734 5735 5735 5736 5736 5737 5737 5737 5738 5738 5738 5738 5738 5738 5737 5737 5737 5736 5736 5735 5734 5734 5734 5733 5733 5732 5731 5730 5729 5728 5726 5725 5722 5720 5718 5715 5713 5711 5710 5708 5705 5703 5702 5699 5697 5695 5692 5690 5688
5645 5649 5651 5653 5656 5658 5660 5662 5666 5670 5674 5677 5681 5684 5686 5689 5692 5695 5697 5699 5703 5706 5709 5711 5713 5715 5717 5720 5721 5723 5724 5725 5727 5728 5729 5730 5731 5732 5732 5732 5733 5733 5734 5734 5734 5735 5734 5734 5734 5734 5733 5733 5733 5732 5732 5731 5730 5730 5730 5730 5729 5729 5728 5726 5725 5724 5722 5721 5718 5716 5713 5711 5709 5707 5705 5703 5701 5700 5698 5695 5693 5691 5688 5686 5684
5642 5645 5648 5650 5652 5654 5656 5660 5664 5668 5672 5674 5677 5680 5682 5685 5689 5691 5693 5696 5700 5704 5706 5707 5709 5711 5713 5716 5718 5719 5720 5722 5723 5724 5725 5726 5727 5728 5728 5729 5729 5730 5730 5730 5730 5730 5730 5730 5730 5730 5730 5729 5729 5729 5728 5727 5727 5726 5726 5726 5725 5725 5724 5723 5721 5720 5718 5716 5714 5711 5708 5705 5704 5702 5701 5699 5697 5695 5694 5691 5689 5686 5684 5682 5680
5638 5640 5643 5646 5649 5651 5653 5657 5662 5666 5668 5670 5673 5675 5678 5681 5684 5686 5690 5694 5697 5699 5701 5702 5704 5707 5710 5712 5714 5715 5717 5718 5719 5720 5721 5723 5724 5725 5725 5726 5726 5725 5726 5726 5727 5726 5726 5726 5726 5726 5726 5726 5725 5725 5724 5724 5723 5722 5722 5721 5722 5721 5720 5719 5717 5716 5713 5711 5709 5707 5703 5701 5699 5698 5696 5695 5693 5691 5689 5687 5685 5682 5680 5678 5675
5635 5637 5639 5642 5646 5650 5653 5656 5659 5661 5664 5666 5669 5671 5674 5676 5679 5682 5686 5689 5692 5694 5696 5698 5701 5703 5706 5708 5709 5711 5713 5714 5715 5717 5718 5720 5721 5721 5722 5722 5723 5722 5722 5722 5723 5723 5722 5722 5722 5722 5722 5722 5722 5721 5720 5719 5719 5718 5717 5717 5717 5717 5716 5715 5713 5711 5708 5706 5704 5702 5699 5697 5695 5693 5692 5690 5688 5686 5685 5683 5680 5678 5676 5673 5671
5631 5634 5637 5640 5643 5646 5650 5652 5654 5656 5659 5661 5663 5666 5668 5671 5674 5678 5681 5684 5687 5690 5692 5695 5697 5699 5702 5703 5705 5707 5709 5711 5713 5714 5714 5716 5717 5718 5718 5719 5720 5719 5719 5719 5719 5719 5719 5719 5719 5719 5718 5718 5718 5717 5716 5715 5715 5714 5714 5713 5713 5713 5712 5710 5708 5705 5702 5700 5698 5696 5694 5692 5690 5689 5687 5686 5684 5682 5680 5678 5676 5674 5672 5669 5666
5628 5631 5634 5637 5640 5642 5645 5646 5648 5650 5653 5655 5657 5660 5663 5667 5670 5673 5676 5679 5683 5686 5688 5690 5692 5695 5697 5699 5701 5703 5705 5707 5709 5709 5710 5713 5715 5715 5715 5716 5716 5715 5715 5715 5715 5715 5715 5715 5715 5715 5714 5714 5714 5714 5713 5712 5711 5711 5710 5710 5709 5709 5707 5705 5702 5699 5697 5695 5693 5691 5690 5688 5686 5684 5683 5681 5679 5677 5675 5673 5671 5669 5667 5664 5662
5626 5628 5630 5633 5635 5637 5638 5639 5642 5645 5648 5650 5652 5656 5659 5663 5666 5669 5672 5675 5678 5681 5683 5686 5688 5690 5693 5695 5698 5701 5703 5704 5705 5706 5708 5711 5712 5712 5713 5713 5712 5712 5712 5712 5712 5712 5712 5711 5711 5711 5711 5711 5710 5710 5709 5708 5707 5706 5706 5706 5705 5704 5702 5699 5697 5694 5692 5690 5688 5687 5685 5683 5681 5680 5678 5677 5675 5673 5671 5669 5667 5665 5662 5660 5658
5623 5625 5627 5629 5631 5633 5633 5634 5637 5642 5646 5648 5649 5652 5655 5657 5660 5663 5666 5670 5673 5676 5679 5681 5684 5687 5690 5693 5696 5699 5700 5701 5702 5704 5706 5707 5708 5709 5709 5709 5709 5709 5709 5709 5709 5708 5708 5708 5707 5707 5707 5707 5706 5706 5705 5704 5703 5702 5702 5701 5700 5698 5696 5694 5692 5689 5688 5686 5684 5682 5680 5678 5676 5675 5673 5672 5670 5668 5666 5664 5662 5660 5658 5656 5654
5622 5623 5625 5627 5628 5630 5632 5633 5635 5638 5641 5643 5644 5646 5649 5653 5656 5659 5662 5664 5668 5672 5675 5678 5681 5684 5688 5691 5694 5696 5697 5697 5699 5700 5702 5703 5704 5705 5706 5706 5705 5705 5705 5705 5705 5705 5705 5704 5703 5703 5703 5703 5702 5702 5700 5699 5698 5698 5697 5696 5694 5693 5691 5689 5687 5685 5684 5682 5680 5678 5676 5674 5672 5670 5668 5667 5665 5663 5662 5660 5658 5656 5654 5652 5650
5621 5622 5623 5625 5627 5629 5631 5634 5635 5636 5636 5638 5641 5645 5649 5653 5657 5659 5661 5663 5665 5667 5671 5675 5678 5682 5686 5688 5690 5692 5694 5695 5697 5698 5699 5700 5701 5702 5702 5702 5702 5702 5702 5702 5702 5701 5701 5700 5699 5699 5699 5699 5698 5697 5696 5695 5694 5693 5692 5691 5689 5688 5686 5684 5683 5681 5680 5678 5676 5674 5672 5670 5668 5666 5664 5663 5661 5659 5658 5656 5654 5652 5650 5648 5646
5619 5620 5622 5624 5627 5629 5630 5632 5634 5635 5635 5636 5640 5644 5647 5649 5652 5655 5659 5662 5665 5666 5668 5671 5675 5679 5683 5685 5687 5689 5692 5693 5695 5696 5697 5698 5699 5699 5699 5698 5698 5698 5698 5698 5698 5697 5697 5696 5696 5695 5695 5695 5694 5693 5692 5690 5689 5688 5687 5686 5685 5683 5682 5680 5678 5677 5675 5674 5672 5670 5668 5666 5664 5662 5660 5658 5657 5655 5654 5652 5650 5648 5646 5644 5642
5617 5619 5621 5623 5625 5627 5629 5630 5631 5632 5633 5634 5637 5639 5641 5643 5646 5649 5653 5658 5663 5665 5667 5670 5674 5678 5680 5683 5685 5688 5689 5691 5692 5693 5694 5695 5695 5695 5695 5695 5694 5694 5694 5693 5693 5693 5693 5692 5692 5692 5691 5691 5690 5688 5687 5686 5685 5684 5682 5681 5680 5679 5677 5676 5674 5672 5671 5669 5667 5665 5663 5661 5660 5658 5656 5654 5652 5651 5649 5647 5645 5644 5642 5640 5638
5616 5618 5619 5621 5623 5625 5627 5628 5629 5630 5631 5632 5633 5634 5636 5638 5641 5645 5649 5654 5658 5661 5664 5668 5673 5676 5678 5681 5683 5685 5686 5688 5689 5690 5690 5691 5691 5691 5691 5690 5690 5690 5689 5689 5689 5689 5689 5688 5688 5687 5687 5686 5685 5683 5682 5681 5680 5679 5678 5676 5675 5674 5672 5671 5669 5668 5666 5664 5662 5661 5659 5657 5655 5653 5652 5650 5648 5646 5645 5643 5641 5639 5637 5635 5633